This demonstration page uses our WeatherBlox Daily Observations layout. Learn more.

Left ArrowRight Arrow

53.62937, 11.41316

Hourly Observations for February 23, 2019

Temp ( °F °C ) Dew Point ( °F °C ) Humidity (%) Winds ( mph kmh ) Pressure ( in mb ) Visibility ( mi km ) Precip ( " mm )
6:50 am 06:50 Mostly Clear 30 -1 21 -6 69 69 SE 3 6 30.80 1043 7 11 N/A
7:20 am 07:20 Mostly Sunny 30 -1 21 -6 69 69 SE 3 6 30.80 1043 7 11 N/A
7:50 am 07:50 Mostly Sunny 30 -1 21 -6 69 69 VRB 2 4 30.80 1043 7 11 N/A
8:20 am 08:20 Mostly Sunny 30 -1 21 -6 69 69 SE 5 7 30.80 1043 7 11 N/A
8:50 am 08:50 Mostly Sunny 32 0 21 -6 64 64 SSE 6 9 30.80 1043 7 11 N/A
9:20 am 09:20 Mostly Sunny 32 0 21 -6 64 64 SSE 6 9 30.80 1043 7 11 N/A
9:50 am 09:50 Mostly Sunny 34 1 23 -5 65 65 SSE 7 11 30.77 1042 7 11 N/A
10:20 am 10:20 Mostly Sunny 36 2 21 -6 56 56 SSE 6 9 30.80 1043 7 11 N/A
10:50 am 10:50 Mostly Sunny 36 2 23 -5 60 60 SSE 7 11 30.77 1042 7 11 N/A
11:20 am 11:20 Mostly Sunny 37 3 21 -6 52 52 S 8 13 30.77 1042 7 11 N/A
11:50 am 11:50 Mostly Sunny 39 4 19 -7 45 45 S 7 11 30.77 1042 7 11 N/A
12:20 pm 12:20 Mostly Sunny 39 4 19 -7 45 45 SSE 6 9 30.77 1042 7 11 N/A
12:50 pm 12:50 Mostly Sunny 41 5 21 -6 45 45 SE 6 9 30.77 1042 7 11 N/A
1:20 pm 13:20 Mostly Sunny 41 5 21 -6 45 45 SE 5 7 30.74 1041 7 11 N/A
1:50 pm 13:50 Mostly Sunny 43 6 21 -6 42 42 SE 6 9 30.74 1041 7 11 N/A
2:20 pm 14:20 Mostly Sunny 43 6 19 -7 39 39 SE 6 9 30.74 1041 7 11 N/A
2:50 pm 14:50 Mostly Sunny 45 7 21 -6 39 39 SSE 6 9 30.74 1041 7 11 N/A
3:20 pm 15:20 Mostly Sunny 43 6 19 -7 39 39 SE 8 13 30.74 1041 7 11 N/A
3:50 pm 15:50 Mostly Sunny 43 6 21 -6 42 42 SSE 6 9 30.71 1040 7 11 N/A
4:20 pm 16:20 Mostly Sunny 43 6 21 -6 42 42 SSE 5 7 30.71 1040 7 11 N/A
4:50 pm 16:50 Mostly Sunny 43 6 21 -6 42 42 SSE 6 9 30.71 1040 7 11 N/A
5:20 pm 17:20 Mostly Sunny 41 5 21 -6 45 45 SE 5 7 30.71 1040 7 11 N/A
5:50 pm 17:50 Mostly Clear 41 5 21 -6 45 45 SE 5 7 30.71 1040 7 11 N/A
6:20 pm 18:20 Mostly Clear 39 4 23 -5 52 52 SE 5 7 30.71 1040 7 11 N/A
6:50 pm 18:50 Mostly Clear 39 4 21 -6 48 48 SE 6 9 30.71 1040 7 11 N/A
7:20 pm 19:20 Mostly Clear 39 4 21 -6 48 48 SSE 3 6 30.71 1040 7 11 N/A

Powered by AerisWeather